QTR67 OTHH-EDDF

Flight info

Callsign QTR67
Flight time N/A
Altitude 28000
Route DATRI L564 BAT/N0518F290 L564 MIGMA/N0510F280 M628 AMBAG/N0503F340 M321 KSA T503 LONIB/N0494F360 T503 OVANO L768 FIRAS R655 KTN R785 NIKAS L619 VESAR UB545 MUT UL619 MAKOL DCT ARGES/N0475F380 DCT OXDOC DCT BEGLA DCT UBUXI DCT DITIS DCT RAPET T170 GAPLA/N0460F240 T178 KERAX KERAX5A
Aircraft B77W/H-SDE1E2E3FGHIJ2J3J4J5M1RWXY/LB1D1

Departure

Time 2026-05-06 20:55
Airport Hamad International Airport (OTHH)

Arrival

Time N/A
Airport Frankfurt Main Airport (EDDF)
Time Latitude Longitude Altitude Speed Heading
2026-05-06 20:48 25.26659 51.61237 27 ft 0 kts 248°
2026-05-06 20:51 25.26661 51.61228 27 ft 5 kts 286°
2026-05-06 20:51 25.26708 51.61257 27 ft 15 kts 59°
2026-05-06 20:51 25.26634 51.61351 27 ft 21 kts 157°
2026-05-06 20:52 25.26485 51.61419 27 ft 25 kts 157°
2026-05-06 20:52 25.26395 51.61557 27 ft 25 kts 75°
2026-05-06 20:52 25.26474 51.61732 27 ft 25 kts 66°
2026-05-06 20:52 25.26518 51.61915 27 ft 25 kts 114°
2026-05-06 20:53 25.26359 51.62013 27 ft 28 kts 158°
2026-05-06 20:53 25.26170 51.62096 27 ft 31 kts 159°
2026-05-06 20:53 25.25963 51.62187 27 ft 33 kts 158°
2026-05-06 20:53 25.25739 51.62285 27 ft 36 kts 158°
2026-05-06 20:54 25.25507 51.62397 27 ft 25 kts 137°
2026-05-06 20:54 25.25525 51.62572 27 ft 25 kts 62°
2026-05-06 20:54 25.25681 51.62614 27 ft 30 kts 338°
2026-05-06 20:54 25.26093 51.62435 27 ft 113 kts 339°
2026-05-06 20:55 25.27141 51.61973 36 ft 206 kts 339°
2026-05-06 20:55 25.28531 51.61350 1141 ft 213 kts 339°
2026-05-06 20:55 25.29889 51.60754 2525 ft 212 kts 339°
2026-05-06 20:55 25.31243 51.60159 3264 ft 208 kts 339°
2026-05-06 20:56 25.32588 51.59561 3846 ft 210 kts 340°
2026-05-06 20:56 25.34068 51.59283 4029 ft 227 kts
2026-05-06 20:56 25.35695 51.59137 4218 ft 248 kts 340°
2026-05-06 20:56 25.37172 51.58078 4579 ft 268 kts 313°
2026-05-06 20:57 25.38104 51.56262 5180 ft 278 kts 285°
2026-05-06 20:57 25.38179 51.54121 5936 ft 284 kts 258°
2026-05-06 20:57 25.37396 51.52119 6700 ft 287 kts 233°
2026-05-06 20:57 25.36044 51.50473 7330 ft 293 kts 226°
2026-05-06 20:58 25.34589 51.48882 8110 ft 295 kts 225°
2026-05-06 20:58 25.33104 51.47293 8934 ft 298 kts 225°
2026-05-06 20:58 25.31602 51.45693 9717 ft 302 kts 225°
2026-05-06 20:58 25.30081 51.44068 10416 ft 307 kts 225°
2026-05-06 20:59 25.28501 51.42373 10745 ft 329 kts 224°
2026-05-06 20:59 25.26822 51.40565 10907 ft 354 kts 224°
2026-05-06 20:59 25.25000 51.38598 11108 ft 378 kts 225°
2026-05-06 20:59 25.23080 51.36521 11559 ft 392 kts 224°
2026-05-06 21:00 25.21118 51.34395 12238 ft 399 kts 224°
2026-05-06 21:00 25.19117 51.32226 12947 ft 404 kts 224°
2026-05-06 21:00 25.17105 51.30043 13751 ft 407 kts 224°
2026-05-06 21:00 25.15074 51.27840 14455 ft 411 kts 224°
2026-05-06 21:01 25.13026 51.25619 15210 ft 413 kts 224°
2026-05-06 21:01 25.10975 51.23395 15969 ft 415 kts 224°
2026-05-06 21:01 25.08912 51.21158 16731 ft 417 kts 224°
2026-05-06 21:01 25.06835 51.18909 17468 ft 420 kts 224°
2026-05-06 21:02 25.04741 51.16642 18197 ft 422 kts 225°
2026-05-06 21:02 25.02645 51.14373 18875 ft 424 kts 225°
2026-05-06 21:02 25.00540 51.12096 19556 ft 424 kts 225°
2026-05-06 21:02 24.98451 51.09839 20221 ft 426 kts 225°
2026-05-06 21:03 24.96330 51.07547 20801 ft 430 kts 225°
2026-05-06 21:03 24.94188 51.05233 21379 ft 433 kts 225°
2026-05-06 21:03 24.92024 51.02896 21991 ft 436 kts 225°
2026-05-06 21:03 24.89852 51.00553 22569 ft 438 kts 225°
2026-05-06 21:04 24.87660 50.98190 23137 ft 441 kts 225°
2026-05-06 21:04 24.85455 50.95814 23649 ft 444 kts 225°
2026-05-06 21:04 24.83242 50.93431 24128 ft 446 kts 225°
2026-05-06 21:04 24.81024 50.91042 24616 ft 447 kts 225°
2026-05-06 21:05 24.78799 50.88648 25088 ft 448 kts 225°
2026-05-06 21:05 24.76565 50.86246 25558 ft 450 kts 225°
2026-05-06 21:05 24.74347 50.83861 25994 ft 452 kts 225°
2026-05-06 21:05 24.72093 50.81440 26425 ft 454 kts 225°
2026-05-06 21:06 24.69829 50.79009 26865 ft 456 kts 225°
2026-05-06 21:06 24.67552 50.76566 27280 ft 458 kts 225°
2026-05-06 21:06 24.65267 50.74115 27690 ft 460 kts 225°
2026-05-06 21:06 24.62971 50.71653 28081 ft 462 kts 225°
2026-05-06 21:07 24.60665 50.69182 28453 ft 464 kts 225°
2026-05-06 21:07 24.58353 50.66707 28790 ft 466 kts 226°
2026-05-06 21:07 24.56023 50.64213 29130 ft 468 kts 226°
2026-05-06 21:07 24.53686 50.61714 29442 ft 469 kts 226°
2026-05-06 21:08 24.51365 50.59232 29741 ft 471 kts 226°
2026-05-06 21:08 24.49012 50.56719 30014 ft 473 kts 226°
2026-05-06 21:08 24.46650 50.54197 30322 ft 472 kts 226°
2026-05-06 21:08 24.44314 50.51678 30666 ft 470 kts 228°
2026-05-06 21:09 24.42278 50.48891 31005 ft 467 kts 239°
2026-05-06 21:09 24.40955 50.45653 31351 ft 465 kts 253°
2026-05-06 21:09 24.40270 50.42200 31727 ft 464 kts 262°
2026-05-06 21:09 24.40194 50.38663 32050 ft 465 kts 275°
2026-05-06 21:10 24.40729 50.35161 32250 ft 467 kts 278°
2026-05-06 21:10 24.41357 50.31657 32487 ft 468 kts 278°
2026-05-06 21:10 24.42004 50.28166 32861 ft 466 kts 278°
2026-05-06 21:10 24.42428 50.25861 33125 ft 464 kts 278°
2026-05-06 21:11 24.43051 50.22398 33526 ft 461 kts 278°
2026-05-06 21:11 24.43850 50.17814 33803 ft 463 kts 277°
2026-05-06 21:11 24.44250 50.15460 33825 ft 465 kts 277°
2026-05-06 21:12 24.45418 50.08452 33867 ft 468 kts 277°
2026-05-06 21:12 24.46570 50.01482 33868 ft 466 kts 277°
2026-05-06 21:13 24.47919 49.93304 33873 ft 465 kts 277°
2026-05-06 21:13 24.48875 49.87497 33877 ft 464 kts 277°
2026-05-06 21:14 24.50019 49.80525 33883 ft 464 kts 277°
2026-05-06 21:14 24.51160 49.73559 33880 ft 464 kts 277°
2026-05-06 21:15 24.52298 49.66587 33883 ft 464 kts 277°
2026-05-06 21:15 24.53435 49.59605 33883 ft 464 kts 277°
2026-05-06 21:16 24.54566 49.52633 33884 ft 464 kts 277°
2026-05-06 21:16 24.55690 49.45687 33889 ft 464 kts 277°
2026-05-06 21:17 24.56818 49.38693 33886 ft 465 kts 277°
2026-05-06 21:17 24.57944 49.31690 33890 ft 465 kts 277°
2026-05-06 21:18 24.59066 49.24688 33891 ft 465 kts 277°
2026-05-06 21:18 24.60187 49.17678 33886 ft 465 kts 277°
2026-05-06 21:19 24.61303 49.10671 33891 ft 465 kts 277°
2026-05-06 21:19 24.62416 49.03666 33900 ft 465 kts 277°
2026-05-06 21:20 24.63516 48.96723 33897 ft 464 kts 276°
2026-05-06 21:20 24.64618 48.89740 33903 ft 463 kts 276°
2026-05-06 21:21 24.65716 48.82763 33907 ft 461 kts 276°
2026-05-06 21:21 24.66806 48.75817 33908 ft 460 kts 276°
2026-05-06 21:22 24.67882 48.68938 33913 ft 459 kts 276°
2026-05-06 21:22 24.68963 48.62004 33916 ft 459 kts 276°
2026-05-06 21:23 24.70040 48.55076 33915 ft 459 kts 276°
2026-05-06 21:23 24.71112 48.48156 33923 ft 459 kts 276°
2026-05-06 21:24 24.72183 48.41218 33928 ft 460 kts 276°
2026-05-06 21:24 24.73247 48.34309 33933 ft 461 kts 276°
2026-05-06 21:25 24.74316 48.27344 33938 ft 461 kts 276°
2026-05-06 21:25 24.75381 48.20381 33940 ft 462 kts 275°
2026-05-06 21:26 24.76444 48.13414 33942 ft 462 kts 275°
2026-05-06 21:26 24.77504 48.06443 33948 ft 461 kts 275°
2026-05-06 21:27 24.78553 47.99521 33946 ft 461 kts 275°
2026-05-06 21:27 24.79604 47.92565 33951 ft 460 kts 275°
2026-05-06 21:28 24.80650 47.85617 33948 ft 459 kts 275°
2026-05-06 21:28 24.81691 47.78679 33954 ft 459 kts 275°
2026-05-06 21:29 24.82729 47.71741 33953 ft 458 kts 275°
2026-05-06 21:29 24.83760 47.64824 33958 ft 457 kts 275°
2026-05-06 21:30 24.84781 47.57958 33959 ft 457 kts 275°
2026-05-06 21:30 24.85802 47.51062 33959 ft 456 kts 275°
2026-05-06 21:31 24.86820 47.44168 33966 ft 456 kts 275°
2026-05-06 21:31 24.87835 47.37272 33957 ft 456 kts 275°
2026-05-06 21:32 24.88846 47.30378 33960 ft 455 kts 275°
2026-05-06 21:32 24.90356 47.20043 33956 ft 455 kts 275°
2026-05-06 21:33 24.91352 47.13198 33964 ft 455 kts 275°
2026-05-06 21:33 24.92349 47.06319 33972 ft 454 kts 274°
2026-05-06 21:34 24.93344 46.99433 33974 ft 454 kts 274°
2026-05-06 21:34 24.94334 46.92562 33984 ft 454 kts 274°
2026-05-06 21:35 24.95314 46.85733 33994 ft 454 kts 274°
2026-05-06 21:35 24.96296 46.78871 33992 ft 453 kts 274°
2026-05-06 21:36 24.97329 46.72031 33988 ft 454 kts 279°
2026-05-06 21:36 24.99985 46.65615 34004 ft 469 kts 296°
2026-05-06 21:37 25.04354 46.60123 34007 ft 484 kts 310°
2026-05-06 21:37 25.09377 46.55134 33991 ft 487 kts 310°
2026-05-06 21:38 25.14423 46.50112 33985 ft 488 kts 310°
2026-05-06 21:38 25.19425 46.45030 33983 ft 489 kts 309°
2026-05-06 21:39 25.24422 46.39908 33965 ft 489 kts 309°
2026-05-06 21:39 25.29377 46.34820 33971 ft 489 kts 309°
2026-05-06 21:40 25.34376 46.29685 33967 ft 489 kts 309°
2026-05-06 21:40 25.39356 46.24567 33974 ft 488 kts 309°
2026-05-06 21:41 25.44299 46.19480 33966 ft 487 kts 309°
2026-05-06 21:41 25.49257 46.14371 33971 ft 487 kts 309°
2026-05-06 21:42 25.54211 46.09259 33970 ft 486 kts 309°
2026-05-06 21:42 25.59168 46.04138 33971 ft 486 kts 308°
2026-05-06 21:43 25.64110 45.99029 33974 ft 486 kts 308°
2026-05-06 21:43 25.69017 45.93952 33980 ft 486 kts 308°
2026-05-06 21:44 25.73960 45.88832 33975 ft 485 kts 308°
2026-05-06 21:44 25.78892 45.83716 33977 ft 485 kts 308°
2026-05-06 21:45 25.83819 45.78597 33986 ft 484 kts 308°
2026-05-06 21:45 25.88740 45.73482 33982 ft 484 kts 308°
2026-05-06 21:46 25.93654 45.68374 33982 ft 483 kts 308°
2026-05-06 21:46 25.98526 45.63303 33980 ft 483 kts 308°
2026-05-06 21:47 26.03421 45.58199 33976 ft 482 kts 308°
2026-05-06 21:47 26.08321 45.53084 33969 ft 482 kts 308°
2026-05-06 21:48 26.13200 45.47983 33971 ft 481 kts 308°
2026-05-06 21:48 26.18079 45.42878 33971 ft 481 kts 307°
2026-05-06 21:49 26.22945 45.37760 33971 ft 481 kts 307°
2026-05-06 21:49 26.27808 45.32634 33970 ft 481 kts 307°
2026-05-06 21:50 26.32648 45.27539 33966 ft 481 kts 308°
2026-05-06 21:50 26.37529 45.22419 33964 ft 481 kts 308°
2026-05-06 21:51 26.42409 45.17297 33967 ft 481 kts 308°
2026-05-06 21:51 26.47288 45.12164 33961 ft 482 kts 308°
2026-05-06 21:52 26.52158 45.07032 33956 ft 481 kts 308°
2026-05-06 21:52 26.57034 45.01889 33963 ft 481 kts 308°
2026-05-06 21:53 26.61906 44.96748 33960 ft 482 kts 308°
2026-05-06 21:53 26.66753 44.91634 33953 ft 482 kts 308°
2026-05-06 21:54 26.71625 44.86485 33957 ft 482 kts 308°
2026-05-06 21:54 26.76507 44.81319 33959 ft 483 kts 308°
2026-05-06 21:55 26.81378 44.76144 33957 ft 483 kts 308°
2026-05-06 21:55 26.86249 44.70950 33955 ft 484 kts 308°
2026-05-06 21:56 26.91125 44.65746 33963 ft 484 kts 308°
2026-05-06 21:56 26.96007 44.60531 33961 ft 484 kts 308°
2026-05-06 21:57 27.00065 44.56192 33963 ft 485 kts 309°
2026-05-06 21:57 27.05751 44.50126 33964 ft 485 kts 309°
2026-05-06 21:58 27.09817 44.45787 33969 ft 484 kts 309°
2026-05-06 21:58 27.14698 44.40567 33973 ft 484 kts 309°
2026-05-06 21:59 27.19577 44.35342 33969 ft 484 kts 309°
2026-05-06 21:59 27.24452 44.30112 33974 ft 484 kts 309°
2026-05-06 22:00 27.29322 44.24878 33979 ft 485 kts 309°
2026-05-06 22:00 27.34199 44.19630 33985 ft 485 kts 309°
2026-05-06 22:01 27.39053 44.14399 33978 ft 486 kts 309°
2026-05-06 22:01 27.43927 44.09143 33992 ft 485 kts 309°
2026-05-06 22:02 27.48788 44.03892 33986 ft 484 kts 309°
2026-05-06 22:02 27.53643 43.98640 33991 ft 483 kts 309°
2026-05-06 22:03 27.58476 43.93407 33989 ft 482 kts 309°
2026-05-06 22:03 27.63302 43.88173 33992 ft 480 kts 309°
2026-05-06 22:04 27.68113 43.82948 33999 ft 479 kts 309°
2026-05-06 22:04 27.72913 43.77730 33998 ft 479 kts 309°
2026-05-06 22:05 27.77715 43.72501 34004 ft 479 kts 309°
2026-05-06 22:05 27.82475 43.67312 33997 ft 479 kts 308°
2026-05-06 22:06 27.87207 43.62029 34001 ft 477 kts 306°
2026-05-06 22:06 27.91720 43.56558 34001 ft 475 kts 305°
2026-05-06 22:07 27.96209 43.51052 34003 ft 476 kts 305°
2026-05-06 22:07 28.00721 43.45573 34012 ft 476 kts 306°
2026-05-06 22:08 28.05253 43.40098 34013 ft 476 kts 305°
2026-05-06 22:08 28.09787 43.34621 34012 ft 476 kts 305°
2026-05-06 22:09 28.14289 43.29172 34016 ft 475 kts 305°
2026-05-06 22:09 28.18804 43.23699 34017 ft 475 kts 305°
2026-05-06 22:10 28.23307 43.18233 34024 ft 474 kts 305°
2026-05-06 22:10 28.27807 43.12763 34024 ft 473 kts 305°
2026-05-06 22:11 28.32297 43.07297 34023 ft 473 kts 304°
2026-05-06 22:11 28.36783 43.01829 34018 ft 472 kts 304°
2026-05-06 22:12 28.41229 42.96402 34020 ft 472 kts 304°
2026-05-06 22:12 28.45694 42.90946 34023 ft 471 kts 304°
2026-05-06 22:13 28.50161 42.85478 34028 ft 471 kts 304°
2026-05-06 22:13 28.54618 42.80016 34024 ft 471 kts 304°
2026-05-06 22:14 28.59073 42.74549 34019 ft 470 kts 304°
2026-05-06 22:14 28.63495 42.69117 34025 ft 470 kts 304°
2026-05-06 22:15 28.67927 42.63658 34030 ft 469 kts 304°
2026-05-06 22:15 28.72349 42.58196 34032 ft 468 kts 304°
2026-05-06 22:16 28.76767 42.52730 34033 ft 468 kts 304°
2026-05-06 22:16 28.81178 42.47266 34032 ft 468 kts 304°
2026-05-06 22:17 28.85579 42.41806 34038 ft 467 kts 304°
2026-05-06 22:17 28.89950 42.36379 34037 ft 467 kts 304°
2026-05-06 22:18 28.94336 42.30924 34041 ft 466 kts 304°
2026-05-06 22:18 28.98732 42.25447 34043 ft 466 kts 304°
2026-05-06 22:19 29.03117 42.19980 34049 ft 466 kts 304°
2026-05-06 22:19 29.07499 42.14512 34033 ft 466 kts 304°
2026-05-06 22:20 29.11883 42.09040 34037 ft 467 kts 304°
2026-05-06 22:20 29.16271 42.03554 34053 ft 467 kts 304°
2026-05-06 22:21 29.20655 41.98064 34052 ft 468 kts 304°
2026-05-06 22:21 29.25033 41.92573 34052 ft 468 kts 304°
2026-05-06 22:22 29.29432 41.87049 34050 ft 469 kts 304°
2026-05-06 22:22 29.33828 41.81521 34054 ft 469 kts 304°
2026-05-06 22:23 29.38200 41.76017 34055 ft 470 kts 304°
2026-05-06 22:23 29.42599 41.70471 34053 ft 470 kts 304°
2026-05-06 22:24 29.46994 41.64922 34054 ft 470 kts 304°
2026-05-06 22:24 29.51387 41.59367 34062 ft 470 kts 304°
2026-05-06 22:25 29.55780 41.53804 34065 ft 470 kts 304°
2026-05-06 22:25 29.60168 41.48239 34068 ft 470 kts 304°
2026-05-06 22:26 29.64554 41.42669 34069 ft 470 kts 304°
2026-05-06 22:26 29.68915 41.37124 34070 ft 470 kts 304°
2026-05-06 22:27 29.73315 41.31537 34064 ft 471 kts 305°
2026-05-06 22:27 29.78147 41.26334 34085 ft 478 kts 310°
2026-05-06 22:28 29.83146 41.21280 34070 ft 478 kts 310°
2026-05-06 22:28 29.88136 41.16206 34074 ft 478 kts 310°
2026-05-06 22:29 29.93089 41.11126 34074 ft 478 kts 309°
2026-05-06 22:29 29.98051 41.06017 34078 ft 478 kts 309°
2026-05-06 22:30 30.03004 41.00909 34078 ft 477 kts 309°
2026-05-06 22:30 30.07959 40.95795 34078 ft 477 kts 309°
2026-05-06 22:31 30.12902 40.90685 34057 ft 477 kts 310°
2026-05-06 22:31 30.17811 40.85604 34069 ft 476 kts 310°
2026-05-06 22:32 30.22744 40.80492 34074 ft 476 kts 310°
2026-05-06 22:32 30.27682 40.75366 34076 ft 476 kts 310°
2026-05-06 22:33 30.32611 40.70242 34068 ft 476 kts 310°
2026-05-06 22:33 30.37545 40.65107 34077 ft 476 kts 310°
2026-05-06 22:34 30.42488 40.59999 34078 ft 477 kts 311°
2026-05-06 22:34 30.47475 40.54910 34080 ft 476 kts 311°
2026-05-06 22:35 30.52417 40.49862 34072 ft 476 kts 311°
2026-05-06 22:35 30.57384 40.44769 34071 ft 475 kts 311°
2026-05-06 22:36 30.62339 40.39676 34076 ft 475 kts 311°
2026-05-06 22:36 30.67275 40.34594 34072 ft 474 kts 311°
2026-05-06 22:37 30.72182 40.29535 34072 ft 474 kts 311°
2026-05-06 22:37 30.77117 40.24441 34077 ft 474 kts 311°
2026-05-06 22:38 30.82044 40.19347 34077 ft 474 kts 311°
2026-05-06 22:38 30.86971 40.14247 34075 ft 474 kts 311°
2026-05-06 22:39 30.91900 40.09136 34077 ft 474 kts 311°
2026-05-06 22:39 30.96792 40.04058 34089 ft 474 kts 311°
2026-05-06 22:40 31.01723 39.98931 34074 ft 474 kts 311°
2026-05-06 22:40 31.06642 39.93808 34076 ft 474 kts 311°
2026-05-06 22:41 31.14024 39.86109 34080 ft 474 kts 311°
2026-05-06 22:42 31.18914 39.80998 34078 ft 474 kts 311°
2026-05-06 22:42 31.23839 39.75844 34079 ft 475 kts 311°
2026-05-06 22:43 31.28756 39.70691 34082 ft 475 kts 311°
2026-05-06 22:43 31.33673 39.65529 34078 ft 475 kts 311°
2026-05-06 22:44 31.37755 39.61239 34075 ft 474 kts 311°
2026-05-06 22:44 31.42665 39.56072 34080 ft 474 kts 311°
2026-05-06 22:45 31.47566 39.50898 34078 ft 474 kts 311°
2026-05-06 22:45 31.52461 39.45712 34088 ft 473 kts 311°
2026-05-06 22:46 31.57318 39.40560 34085 ft 473 kts 311°
2026-05-06 22:46 31.62203 39.35370 34083 ft 473 kts 311°
2026-05-06 22:47 31.67079 39.30184 34078 ft 473 kts 311°
2026-05-06 22:47 31.71949 39.24996 34085 ft 472 kts 312°
2026-05-06 22:48 31.76774 39.19851 34075 ft 471 kts 313°
2026-05-06 22:48 31.82076 39.15225 34085 ft 479 kts 322°
2026-05-06 22:49 31.88030 39.11564 34083 ft 483 kts 328°
2026-05-06 22:49 31.94064 39.08087 34079 ft 482 kts 328°
2026-05-06 22:50 32.00066 39.04549 34076 ft 481 kts 327°
2026-05-06 22:50 32.06006 39.01032 34076 ft 481 kts 327°
2026-05-06 22:51 32.11990 38.97510 34069 ft 480 kts 328°
2026-05-06 22:51 32.17960 38.93994 34079 ft 479 kts 328°
2026-05-06 22:52 32.23919 38.90474 34076 ft 479 kts 328°
2026-05-06 22:52 32.29883 38.86945 34075 ft 479 kts 328°
2026-05-06 22:53 32.35837 38.83416 34076 ft 479 kts 328°
2026-05-06 22:53 32.41796 38.79880 34074 ft 479 kts 328°
2026-05-06 22:54 32.47715 38.76362 34074 ft 479 kts 328°
2026-05-06 22:54 32.53679 38.72812 34073 ft 480 kts 327°
2026-05-06 22:55 32.59652 38.69252 34076 ft 481 kts 327°
2026-05-06 22:55 32.65629 38.65688 34074 ft 481 kts 327°
2026-05-06 22:56 32.71621 38.62113 34077 ft 482 kts 327°
2026-05-06 22:56 32.77613 38.58531 34077 ft 482 kts 327°
2026-05-06 22:57 32.83620 38.54934 34077 ft 482 kts 327°
2026-05-06 22:57 32.89608 38.51343 34076 ft 482 kts 327°
2026-05-06 22:58 32.95551 38.47774 34079 ft 480 kts 327°
2026-05-06 22:58 33.01517 38.44186 34080 ft 479 kts 327°
2026-05-06 22:59 33.07463 38.40604 34078 ft 478 kts 327°
2026-05-06 22:59 33.13389 38.37030 34079 ft 476 kts 327°
2026-05-06 23:00 33.19286 38.33437 34080 ft 475 kts 326°
2026-05-06 23:00 33.25129 38.29865 34073 ft 474 kts 326°
2026-05-06 23:01 33.31008 38.26275 34074 ft 474 kts 326°
2026-05-06 23:01 33.36879 38.22686 34077 ft 474 kts 326°
2026-05-06 23:02 33.42756 38.19085 34086 ft 474 kts 326°
2026-05-06 23:02 33.48638 38.15487 34087 ft 475 kts 326°
2026-05-06 23:03 33.54503 38.11934 34088 ft 475 kts 326°
2026-05-06 23:03 33.60426 38.08343 34092 ft 476 kts 326°
2026-05-06 23:04 33.66327 38.04753 34090 ft 476 kts 326°
2026-05-06 23:04 33.72230 38.01153 34091 ft 475 kts 326°
2026-05-06 23:05 33.78125 37.97553 34090 ft 475 kts 326°
2026-05-06 23:05 33.83910 37.93867 34090 ft 467 kts 319°
2026-05-06 23:06 33.88678 37.88778 34101 ft 453 kts 305°
2026-05-06 23:06 33.92234 37.82623 34109 ft 445 kts 296°
2026-05-06 23:07 33.95486 37.76256 34108 ft 446 kts 296°
2026-05-06 23:07 33.98761 37.69902 34120 ft 446 kts 297°
2026-05-06 23:08 34.02038 37.63598 34106 ft 446 kts 297°
2026-05-06 23:08 34.05340 37.57251 34106 ft 446 kts 297°
2026-05-06 23:09 34.08630 37.50918 34110 ft 445 kts 297°
2026-05-06 23:09 34.11911 37.44586 34118 ft 444 kts 297°
2026-05-06 23:10 34.15184 37.38257 34117 ft 444 kts 297°
2026-05-06 23:10 34.18437 37.31958 34119 ft 444 kts 297°
2026-05-06 23:11 34.21914 37.25762 34122 ft 449 kts 303°
2026-05-06 23:11 34.26165 37.20158 34130 ft 454 kts 308°
2026-05-06 23:12 34.30560 37.14666 34126 ft 455 kts 308°
2026-05-06 23:12 34.34944 37.09144 34127 ft 455 kts 308°
2026-05-06 23:13 34.39327 37.03588 34131 ft 456 kts 308°
2026-05-06 23:13 34.43687 36.98044 34131 ft 457 kts 308°
2026-05-06 23:14 34.48070 36.92462 34135 ft 457 kts 308°
2026-05-06 23:14 34.52465 36.86857 34130 ft 458 kts 308°
2026-05-06 23:15 34.56858 36.81245 34128 ft 458 kts 308°
2026-05-06 23:15 34.61219 36.75666 34131 ft 458 kts 308°
2026-05-06 23:16 34.65609 36.70040 34126 ft 458 kts 308°
2026-05-06 23:16 34.69996 36.64409 34128 ft 458 kts 308°
2026-05-06 23:17 34.74382 36.58766 34124 ft 458 kts 308°
2026-05-06 23:17 34.78759 36.53122 34128 ft 458 kts 308°
2026-05-06 23:18 34.83141 36.47462 34120 ft 458 kts 308°
2026-05-06 23:18 34.87485 36.41842 34120 ft 458 kts 309°
2026-05-06 23:19 34.91855 36.36179 34119 ft 459 kts 309°
2026-05-06 23:19 34.96230 36.30500 34116 ft 460 kts 309°
2026-05-06 23:20 35.00605 36.24810 34121 ft 460 kts 309°
2026-05-06 23:20 35.04990 36.19099 34120 ft 461 kts 309°
2026-05-06 23:21 35.09375 36.13378 34113 ft 461 kts 309°
2026-05-06 23:21 35.13751 36.07659 34113 ft 461 kts 309°
2026-05-06 23:22 35.18126 36.01932 34097 ft 460 kts 309°
2026-05-06 23:22 35.20096 35.98909 34098 ft 452 kts 297°
2026-05-06 23:22 35.21281 35.95445 34120 ft 447 kts 283°
2026-05-06 23:23 35.21813 35.87923 34094 ft 446 kts 261°
2026-05-06 23:23 35.20576 35.80458 34110 ft 449 kts 260°
2026-05-06 23:24 35.20211 35.72883 34120 ft 449 kts 277°
2026-05-06 23:24 35.21857 35.65505 34088 ft 453 kts 294°
2026-05-06 23:25 35.24824 35.58669 34103 ft 456 kts 296°
2026-05-06 23:25 35.27853 35.51899 34092 ft 457 kts 296°
2026-05-06 23:26 35.30864 35.45051 34093 ft 456 kts 296°
2026-05-06 23:26 35.33838 35.38190 34099 ft 455 kts 296°
2026-05-06 23:27 35.36788 35.31345 34097 ft 454 kts 296°
2026-05-06 23:27 35.39728 35.24507 34104 ft 453 kts 296°
2026-05-06 23:28 35.42645 35.17712 34100 ft 452 kts 296°
2026-05-06 23:28 35.45568 35.10892 34098 ft 451 kts 296°
2026-05-06 23:29 35.48490 35.04062 34101 ft 451 kts 296°
2026-05-06 23:29 35.51405 34.97233 34102 ft 451 kts 296°
2026-05-06 23:30 35.54318 34.90393 34099 ft 452 kts 296°
2026-05-06 23:30 35.56737 34.84705 34103 ft 452 kts 296°